Terug naar catalogus

THORAD AGENA D DEB

ActiefPO
NORAD 4857·DEBRIS·🇺🇸 United States

Gelanceerd Apr 8, 1970 vanaf Vandenberg Space Force Base

Loading…

Volgende Passages

TLE

Source: Space-Track
1  4857U 70025EM  26221.68370786  .00001272  00000-0  50792-3 0  9994
2  4857  99.7342 133.7304 0044228 315.3598  44.4023 14.30080840830607

Volg THORAD AGENA D DEB in realtime met AllMySat

Download on the App Store